• In India
  • List of Countries
  • For 7 days
  • Water Temperature
  • Satellite Maps
  • Weather Map
  • Weather Widgets
  • user-avatar
    Login

    Hourly Weather Kurytyba

    Today, 15 December, Saturday

    Time Temperature Precipitation Wind Pressure Humidity
    00:00 +19°C° 0.5 mm 0 mps 683 mmHg 91%
    01:00 +19°C° 0.8 mm 0 mps 683 mmHg 92%
    02:00 +19°C° 0.8 mm 0 mps 683 mmHg 93%
    03:00 +19°C° 0.8 mm 0 mps 683 mmHg 94%
    04:00 +19°C° 0 mm 0 mps 683 mmHg 93%
    05:00 +21°C° 0 mm 1 mps 683 mmHg 93%
    06:00 +21°C° 0 mm 1 mps 683 mmHg 93%
    07:00 +23°C° 0 mm 1 mps 684 mmHg 82%
    08:00 +26°C° 0 mm 1 mps 685 mmHg 70%
    09:00 +29°C° 0 mm 1 mps 685 mmHg 59%
    10:00 +31°C° 0.1 mm 1 mps 686 mmHg 52%
    11:00 +33°C° 0.1 mm 1 mps 686 mmHg 45%
    12:00 +34°C° 0.1 mm 1 mps 686 mmHg 38%
    13:00 +33°C° 0.3 mm 1 mps 685 mmHg 43%
    14:00 +32°C° 0.3 mm 1 mps 685 mmHg 48%
    15:00 +30°C° 0.3 mm 1 mps 684 mmHg 53%
    16:00 +28°C° 2.3 mm 1 mps 684 mmHg 64%
    17:00 +27°C° 2.3 mm 1 mps 683 mmHg 74%
    18:00 +25°C° 2.3 mm 2 mps 683 mmHg 84%
    19:00 +24°C° 3.5 mm 1 mps 683 mmHg 88%
    20:00 +23°C° 3.5 mm 1 mps 684 mmHg 92%
    21:00 +22°C° 3.5 mm 1 mps 684 mmHg 97%
    22:00 +21°C° 0.1 mm 1 mps 684 mmHg 97%
    23:00 +21°C° 0.1 mm 1 mps 684 mmHg 97%

    Tomorrow, 16 December, Sunday

    Time Temperature Precipitation Wind Pressure Humidity
    00:00 +21°C° 0.1 mm 1 mps 684 mmHg 97%
    01:00 +21°C° 0 mm 1 mps 684 mmHg 97%
    02:00 +18°C° 0 mm 0 mps 683 mmHg 97%
    03:00 +18°C° 0 mm 0 mps 683 mmHg 97%
    04:00 +18°C° 0 mm 0 mps 683 mmHg 97%
    05:00 +18°C° 0 mm 0 mps 684 mmHg 97%
    06:00 +18°C° 0 mm 0 mps 684 mmHg 97%
    07:00 +20°C° 0 mm 0 mps 685 mmHg 85%
    08:00 +25°C° 0 mm 1 mps 685 mmHg 74%
    09:00 +27°C° 0 mm 1 mps 686 mmHg 62%
    10:00 +29°C° 0 mm 1 mps 686 mmHg 55%
    11:00 +30°C° 0 mm 1 mps 686 mmHg 49%
    12:00 +32°C° 0 mm 1 mps 686 mmHg 42%
    13:00 +32°C° 0.1 mm 1 mps 685 mmHg 45%
    14:00 +31°C° 0.1 mm 1 mps 685 mmHg 48%
    15:00 +31°C° 0.1 mm 1 mps 684 mmHg 50%
    16:00 +29°C° 0.6 mm 1 mps 684 mmHg 58%
    17:00 +28°C° 0.6 mm 1 mps 683 mmHg 65%
    18:00 +27°C° 0.6 mm 1 mps 683 mmHg 73%
    19:00 +25°C° 0.2 mm 1 mps 683 mmHg 79%
    20:00 +24°C° 0.2 mm 1 mps 683 mmHg 85%
    21:00 +20°C° 0.2 mm 0 mps 683 mmHg 91%
    22:00 +20°C° 0 mm 0 mps 683 mmHg 91%
    23:00 +20°C° 0 mm 0 mps 683 mmHg 92%

    Day after tomorrow, 17 December, Monday

    Time Temperature Precipitation Wind Pressure Humidity
    00:00 +20°C° 0 mm 0 mps 683 mmHg 92%
    01:00 +20°C° 0 mm 0 mps 683 mmHg 92%
    02:00 +19°C° 0 mm 0 mps 682 mmHg 92%
    03:00 +19°C° 0 mm 0 mps 682 mmHg 92%
    04:00 +19°C° 0 mm 0 mps 682 mmHg 92%
    05:00 +19°C° 0 mm 0 mps 682 mmHg 91%
    06:00 +19°C° 0 mm 0 mps 682 mmHg 91%
    07:00 +23°C° 0 mm 1 mps 683 mmHg 82%
    08:00 +25°C° 0 mm 1 mps 683 mmHg 74%
    09:00 +27°C° 0 mm 1 mps 684 mmHg 65%
    10:00 +29°C° 0.1 mm 1 mps 684 mmHg 61%
    11:00 +30°C° 0.1 mm 2 mps 684 mmHg 56%
    12:00 +32°C° 0.1 mm 2 mps 684 mmHg 51%
    13:00 +31°C° 0.1 mm 2 mps 683 mmHg 52%
    14:00 +31°C° 0.1 mm 2 mps 683 mmHg 52%
    15:00 +31°C° 0.1 mm 1 mps 682 mmHg 52%
    16:00 +29°C° 0.5 mm 2 mps 682 mmHg 61%
    17:00 +28°C° 0.5 mm 2 mps 682 mmHg 69%
    18:00 +26°C° 0.5 mm 2 mps 681 mmHg 78%
    19:00 +25°C° 0.3 mm 1 mps 682 mmHg 81%
    20:00 +24°C° 0.3 mm 1 mps 682 mmHg 84%
    21:00 +23°C° 0.3 mm 1 mps 682 mmHg 87%
    22:00 +23°C° 0.1 mm 1 mps 682 mmHg 88%
    23:00 +22°C° 0.1 mm 1 mps 682 mmHg 89%

    18 December, Tuesday

    Time Temperature Precipitation Wind Pressure Humidity
    00:00 +20°C° 0.1 mm 0 mps 682 mmHg 91%
    01:00 +20°C° 0 mm 0 mps 682 mmHg 90%
    02:00 +19°C° 0 mm 0 mps 681 mmHg 90%
    03:00 +19°C° 0 mm 0 mps 681 mmHg 90%
    04:00 +19°C° 0 mm 0 mps 681 mmHg 90%
    05:00 +21°C° 0 mm 1 mps 681 mmHg 89%
    06:00 +21°C° 0 mm 1 mps 681 mmHg 89%
    07:00 +23°C° 0 mm 1 mps 682 mmHg 80%
    08:00 +25°C° 0 mm 2 mps 682 mmHg 72%
    09:00 +27°C° 0 mm 2 mps 683 mmHg 64%
    10:00 +29°C° 0 mm 2 mps 683 mmHg 58%
    11:00 +31°C° 0 mm 3 mps 683 mmHg 52%
    12:00 +33°C° 0 mm 3 mps 683 mmHg 46%
    13:00 +33°C° 0 mm 3 mps 682 mmHg 46%
    14:00 +33°C° 0 mm 3 mps 682 mmHg 46%
    15:00 +33°C° 0 mm 3 mps 682 mmHg 46%
    16:00 +31°C° 0.2 mm 3 mps 682 mmHg 54%
    17:00 +29°C° 0.2 mm 3 mps 681 mmHg 62%
    18:00 +27°C° 0.2 mm 2 mps 681 mmHg 69%
    19:00 +26°C° 0 mm 2 mps 681 mmHg 74%
    20:00 +25°C° 0 mm 1 mps 682 mmHg 78%
    21:00 +24°C° 0 mm 1 mps 682 mmHg 82%
    22:00 +23°C° 0.1 mm 1 mps 682 mmHg 84%
    23:00 +23°C° 0.1 mm 1 mps 682 mmHg 86%

    19 December, Wednesday

    Time Temperature Precipitation Wind Pressure Humidity
    00:00 +23°C° 0.1 mm 1 mps 681 mmHg 88%
    01:00 +22°C° 0 mm 1 mps 681 mmHg 89%
    02:00 +22°C° 0 mm 1 mps 680 mmHg 90%
    03:00 +22°C° 0 mm 1 mps 680 mmHg 90%
    04:00 +22°C° 0 mm 1 mps 680 mmHg 90%
    05:00 +22°C° 0 mm 1 mps 680 mmHg 90%
    06:00 +22°C° 0 mm 1 mps 680 mmHg 89%
    07:00 +24°C° 0 mm 1 mps 681 mmHg 79%
    08:00 +27°C° 0 mm 2 mps 682 mmHg 69%
    09:00 +29°C° 0 mm 2 mps 682 mmHg 58%
    10:00 +30°C° 0.5 mm 2 mps 682 mmHg 58%
    11:00 +30°C° 0.5 mm 2 mps 682 mmHg 58%
    12:00 +31°C° 0.5 mm 3 mps 682 mmHg 58%
    13:00 +30°C° 0.8 mm 3 mps 681 mmHg 60%
    14:00 +30°C° 0.8 mm 2 mps 681 mmHg 61%
    15:00 +30°C° 0.8 mm 2 mps 681 mmHg 63%
    16:00 +28°C° 1.2 mm 2 mps 680 mmHg 70%
    17:00 +27°C° 1.2 mm 1 mps 680 mmHg 77%
    18:00 +25°C° 1.2 mm 1 mps 680 mmHg 84%
    19:00 +24°C° 0.6 mm 1 mps 680 mmHg 88%
    20:00 +23°C° 0.6 mm 1 mps 680 mmHg 91%
    21:00 +22°C° 0.6 mm 1 mps 681 mmHg 94%
    22:00 +22°C° 0.2 mm 1 mps 681 mmHg 95%
    23:00 +21°C° 0.2 mm 1 mps 681 mmHg 96%

    20 December, Thursday

    Time Temperature Precipitation Wind Pressure Humidity
    00:00 +21°C° 0.2 mm 1 mps 681 mmHg 97%
    01:00 +21°C° 0 mm 1 mps 680 mmHg 97%
    02:00 +19°C° 0 mm 0 mps 680 mmHg 98%
    03:00 +18°C° 0 mm 0 mps 679 mmHg 98%
    04:00 +18°C° 0 mm 0 mps 680 mmHg 98%
    05:00 +20°C° 0 mm 1 mps 680 mmHg 98%
    06:00 +21°C° 0 mm 1 mps 680 mmHg 98%
    07:00 +23°C° 0 mm 1 mps 680 mmHg 86%
    08:00 +26°C° 0 mm 1 mps 681 mmHg 74%
    09:00 +29°C° 0 mm 1 mps 682 mmHg 62%
    10:00 +30°C° 0.1 mm 1 mps 681 mmHg 55%
    11:00 +32°C° 0.1 mm 2 mps 681 mmHg 47%
    12:00 +35°C° 0.1 mm 2 mps 681 mmHg 40%
    13:00 +35°C° 0 mm 2 mps 681 mmHg 40%
    14:00 +34°C° 0 mm 2 mps 680 mmHg 41%
    15:00 +34°C° 0 mm 2 mps 679 mmHg 42%
    16:00 +32°C° 0 mm 2 mps 679 mmHg 47%
    17:00 +31°C° 0 mm 1 mps 679 mmHg 53%
    18:00 +30°C° 0 mm 1 mps 679 mmHg 58%
    19:00 +28°C° 0.1 mm 1 mps 679 mmHg 63%
    20:00 +26°C° 0.1 mm 1 mps 679 mmHg 68%
    21:00 +25°C° 0.1 mm 1 mps 679 mmHg 74%
    22:00 +24°C° 0.1 mm 1 mps 679 mmHg 77%
    23:00 +23°C° 0.1 mm 1 mps 679 mmHg 81%
    Show more